• In Deutschland
  • Länderverzeichnis
  • Für 7 Tage
  • Wassertemperatur
  • Satellitenkarten
  • Wetterkarte
  • Widgets
  • user-avatar
    Anmelden

    Stündliche Wetter Constantine

    Heute, 28 Juli, Freitag

    Zeit Temperatur Niederschläge Wind Luftdruck Luftfeuchtigkeit
    00:00 +26°C° 0 mm 1 m/S 711 mmHg 52%
    01:00 +26°C° 0 mm 1 m/S 711 mmHg 52%
    02:00 +25°C° 0 mm 1 m/S 711 mmHg 52%
    03:00 +25°C° 0 mm 1 m/S 710 mmHg 52%
    04:00 +26°C° 0 mm 1 m/S 711 mmHg 49%
    05:00 +26°C° 0 mm 1 m/S 711 mmHg 47%
    06:00 +27°C° 0 mm 1 m/S 711 mmHg 44%
    07:00 +29°C° 0 mm 1 m/S 712 mmHg 38%
    08:00 +31°C° 0 mm 1 m/S 712 mmHg 32%
    09:00 +33°C° 0 mm 1 m/S 713 mmHg 26%
    10:00 +35°C° 0 mm 2 m/S 713 mmHg 24%
    11:00 +37°C° 0 mm 2 m/S 713 mmHg 21%
    12:00 +38°C° 0 mm 3 m/S 713 mmHg 19%
    13:00 +38°C° 0 mm 3 m/S 713 mmHg 19%
    14:00 +38°C° 0 mm 3 m/S 712 mmHg 18%
    15:00 +40°C° 0 mm 4 m/S 712 mmHg 18%
    16:00 +38°C° 0 mm 4 m/S 712 mmHg 20%
    17:00 +37°C° 0 mm 4 m/S 712 mmHg 22%
    18:00 +35°C° 0 mm 3 m/S 712 mmHg 24%
    19:00 +34°C° 0 mm 3 m/S 712 mmHg 27%
    20:00 +32°C° 0 mm 2 m/S 712 mmHg 29%
    21:00 +30°C° 0 mm 2 m/S 712 mmHg 31%
    22:00 +30°C° 0 mm 2 m/S 712 mmHg 32%
    23:00 +29°C° 0 mm 1 m/S 712 mmHg 32%

    Morgen, 29 Juli, Samstag

    Zeit Temperatur Niederschläge Wind Luftdruck Luftfeuchtigkeit
    00:00 +29°C° 0 mm 1 m/S 712 mmHg 33%
    01:00 +29°C° 0 mm 1 m/S 711 mmHg 33%
    02:00 +28°C° 0 mm 1 m/S 711 mmHg 33%
    03:00 +28°C° 0 mm 1 m/S 711 mmHg 33%
    04:00 +29°C° 0 mm 1 m/S 711 mmHg 32%
    05:00 +30°C° 0 mm 1 m/S 712 mmHg 31%
    06:00 +30°C° 0 mm 1 m/S 712 mmHg 30%
    07:00 +32°C° 0 mm 2 m/S 712 mmHg 27%
    08:00 +35°C° 0 mm 2 m/S 713 mmHg 24%
    09:00 +37°C° 0 mm 2 m/S 713 mmHg 21%
    10:00 +39°C° 0 mm 3 m/S 713 mmHg 20%
    11:00 +40°C° 0 mm 3 m/S 713 mmHg 18%
    12:00 +42°C° 0 mm 4 m/S 713 mmHg 17%
    13:00 +42°C° 0 mm 4 m/S 712 mmHg 17%
    14:00 +42°C° 0 mm 5 m/S 712 mmHg 17%
    15:00 +42°C° 0 mm 5 m/S 712 mmHg 17%
    16:00 +41°C° 0 mm 4 m/S 711 mmHg 18%
    17:00 +40°C° 0 mm 4 m/S 711 mmHg 20%
    18:00 +38°C° 0 mm 3 m/S 711 mmHg 21%
    19:00 +37°C° 0 mm 3 m/S 711 mmHg 24%
    20:00 +35°C° 0 mm 2 m/S 711 mmHg 26%
    21:00 +33°C° 0 mm 1 m/S 712 mmHg 29%
    22:00 +32°C° 0 mm 1 m/S 711 mmHg 30%
    23:00 +32°C° 0 mm 1 m/S 711 mmHg 30%

    übermorgen, 30 Juli, Sonntag

    Zeit Temperatur Niederschläge Wind Luftdruck Luftfeuchtigkeit
    00:00 +31°C° 0 mm 1 m/S 711 mmHg 31%
    01:00 +31°C° 0 mm 1 m/S 711 mmHg 31%
    02:00 +31°C° 0 mm 1 m/S 711 mmHg 31%
    03:00 +30°C° 0 mm 1 m/S 710 mmHg 32%
    04:00 +31°C° 0 mm 1 m/S 710 mmHg 31%
    05:00 +32°C° 0 mm 1 m/S 711 mmHg 30%
    06:00 +32°C° 0 mm 1 m/S 711 mmHg 29%
    07:00 +35°C° 0 mm 2 m/S 711 mmHg 25%
    08:00 +37°C° 0 mm 3 m/S 712 mmHg 22%
    09:00 +39°C° 0 mm 3 m/S 712 mmHg 18%
    10:00 +41°C° 0 mm 4 m/S 712 mmHg 17%
    11:00 +42°C° 0 mm 4 m/S 712 mmHg 16%
    12:00 +43°C° 0 mm 4 m/S 712 mmHg 15%
    13:00 +43°C° 0 mm 4 m/S 711 mmHg 16%
    14:00 +42°C° 0 mm 5 m/S 711 mmHg 17%
    15:00 +42°C° 0 mm 5 m/S 711 mmHg 18%
    16:00 +41°C° 0 mm 4 m/S 711 mmHg 21%
    17:00 +39°C° 0 mm 3 m/S 710 mmHg 24%
    18:00 +37°C° 0 mm 3 m/S 710 mmHg 27%
    19:00 +36°C° 0 mm 2 m/S 710 mmHg 30%
    20:00 +34°C° 0 mm 1 m/S 711 mmHg 33%
    21:00 +32°C° 0 mm 1 m/S 711 mmHg 36%
    22:00 +32°C° 0 mm 1 m/S 710 mmHg 36%
    23:00 +31°C° 0 mm 1 m/S 710 mmHg 36%

    31 Juli, Montag

    Zeit Temperatur Niederschläge Wind Luftdruck Luftfeuchtigkeit
    00:00 +31°C° 0 mm 1 m/S 710 mmHg 36%
    01:00 +31°C° 0 mm 1 m/S 710 mmHg 35%
    02:00 +31°C° 0 mm 1 m/S 710 mmHg 35%
    03:00 +30°C° 0 mm 1 m/S 709 mmHg 35%
    04:00 +31°C° 0 mm 1 m/S 709 mmHg 33%
    05:00 +32°C° 0 mm 1 m/S 710 mmHg 32%
    06:00 +32°C° 0 mm 2 m/S 710 mmHg 30%
    07:00 +36°C° 0 mm 2 m/S 710 mmHg 26%
    08:00 +38°C° 0 mm 3 m/S 710 mmHg 21%
    09:00 +41°C° 0 mm 4 m/S 711 mmHg 16%
    10:00 +42°C° 0 mm 4 m/S 711 mmHg 15%
    11:00 +44°C° 0 mm 4 m/S 710 mmHg 14%
    12:00 +45°C° 0 mm 4 m/S 710 mmHg 13%
    13:00 +45°C° 0 mm 4 m/S 710 mmHg 13%
    14:00 +45°C° 0 mm 4 m/S 710 mmHg 13%
    15:00 +46°C° 0 mm 5 m/S 709 mmHg 13%
    16:00 +44°C° 0 mm 4 m/S 709 mmHg 15%
    17:00 +43°C° 0 mm 3 m/S 709 mmHg 17%
    18:00 +40°C° 0 mm 3 m/S 709 mmHg 19%
    19:00 +39°C° 0,1 mm 2 m/S 709 mmHg 21%
    20:00 +37°C° 0,1 mm 2 m/S 710 mmHg 24%
    21:00 +35°C° 0,1 mm 1 m/S 710 mmHg 26%
    22:00 +34°C° 0 mm 1 m/S 710 mmHg 26%
    23:00 +35°C° 0 mm 2 m/S 710 mmHg 26%

    1 August, Dienstag

    Zeit Temperatur Niederschläge Wind Luftdruck Luftfeuchtigkeit
    00:00 +35°C° 0 mm 2 m/S 710 mmHg 26%
    01:00 +34°C° 0 mm 2 m/S 710 mmHg 27%
    02:00 +34°C° 0 mm 2 m/S 709 mmHg 28%
    03:00 +32°C° 0 mm 1 m/S 709 mmHg 28%
    04:00 +33°C° 0 mm 1 m/S 710 mmHg 28%
    05:00 +33°C° 0 mm 1 m/S 710 mmHg 27%
    06:00 +34°C° 0 mm 1 m/S 710 mmHg 27%
    07:00 +36°C° 0 mm 2 m/S 711 mmHg 24%
    08:00 +38°C° 0 mm 2 m/S 711 mmHg 21%
    09:00 +39°C° 0 mm 2 m/S 712 mmHg 19%
    10:00 +40°C° 0 mm 3 m/S 712 mmHg 17%
    11:00 +42°C° 0 mm 3 m/S 712 mmHg 16%
    12:00 +43°C° 0 mm 4 m/S 712 mmHg 15%
    13:00 +43°C° 0 mm 4 m/S 712 mmHg 15%
    14:00 +43°C° 0 mm 4 m/S 711 mmHg 15%
    15:00 +43°C° 0 mm 4 m/S 711 mmHg 15%
    16:00 +42°C° 0 mm 3 m/S 711 mmHg 17%
    17:00 +40°C° 0 mm 3 m/S 711 mmHg 19%
    18:00 +39°C° 0 mm 2 m/S 711 mmHg 21%
    19:00 +38°C° 0 mm 2 m/S 712 mmHg 23%
    20:00 +35°C° 0 mm 1 m/S 712 mmHg 26%
    21:00 +34°C° 0 mm 1 m/S 712 mmHg 28%
    22:00 +33°C° 0 mm 1 m/S 712 mmHg 29%
    23:00 +34°C° 0 mm 2 m/S 712 mmHg 29%

    2 August, Mittwoch

    Zeit Temperatur Niederschläge Wind Luftdruck Luftfeuchtigkeit
    00:00 +34°C° 0 mm 2 m/S 712 mmHg 30%
    01:00 +32°C° 0 mm 2 m/S 712 mmHg 30%
    02:00 +32°C° 0 mm 2 m/S 712 mmHg 30%
    03:00 +32°C° 0 mm 2 m/S 712 mmHg 30%
    04:00 +32°C° 0 mm 2 m/S 712 mmHg 29%
    05:00 +34°C° 0 mm 2 m/S 712 mmHg 28%
    06:00 +34°C° 0 mm 2 m/S 712 mmHg 27%
    07:00 +36°C° 0 mm 2 m/S 712 mmHg 23%
    08:00 +38°C° 0 mm 2 m/S 713 mmHg 20%
    09:00 +40°C° 0 mm 2 m/S 713 mmHg 17%
    10:00 +41°C° 0 mm 2 m/S 713 mmHg 16%
    11:00 +43°C° 0 mm 3 m/S 713 mmHg 15%
    12:00 +44°C° 0 mm 3 m/S 713 mmHg 14%
    13:00 +44°C° 0 mm 3 m/S 713 mmHg 15%
    14:00 +44°C° 0 mm 4 m/S 712 mmHg 16%
    15:00 +44°C° 0 mm 4 m/S 712 mmHg 17%
    16:00 +42°C° 0,1 mm 4 m/S 712 mmHg 19%
    17:00 +41°C° 0,1 mm 4 m/S 712 mmHg 22%
    18:00 +38°C° 0,1 mm 3 m/S 711 mmHg 25%
    19:00 +37°C° 0,2 mm 3 m/S 712 mmHg 28%
    20:00 +35°C° 0,2 mm 2 m/S 712 mmHg 32%
    21:00 +33°C° 0,2 mm 1 m/S 712 mmHg 35%
    22:00 +32°C° 0,1 mm 1 m/S 712 mmHg 36%
    23:00 +32°C° 0,1 mm 1 m/S 712 mmHg 37%
    Mehr zeigen